Погода в Красномайском

Россия / Тверская область     57°37′04″N   34°24′46″E
темп.,
°C
ветер,
м/с
пор.,
м/с
влажн.,
%
обл.,
%
осадки,
мм/ч
давл.,
гПа
погр.,
м
29 июня, ср
ср2900:00+12вюв27715 0.0 1024166
03:00+10вюв257097 0.0 1025103
06:00+12вюв236615 0.0 1024112
09:00+18в23480 0.0 1024692
12:00+22вюв33340 0.0 10231492
15:00+24в22300 0.0 10211883
18:00+23в22330 0.0 10201878
21:00+16в37690 0.0 1020126
30 июня, чт
чт3000:00+12юв23766 0.0 102161
03:00+11ююв11790 0.0 102211
06:00+13ююв01700 0.0 102144
09:00+20ссв124660 0.0 1021545
12:00+23ссв3433100 0.0 10201741
15:00+25ссв243020 0.0 10202037
18:00+25ссв243533 0.0 10191997
21:00+18ссв11635 0.0 102011
1 июля, пт
пт100:00+15ссз12640 0.0 102111
03:00+13с11741 0.0 102111
06:00+16сз12744 0.0 102275
09:00+22с35505 0.0 1021635
12:00+26ссв46401 0.0 10211987
15:00+28св453188 0.0 10202159
18:00+27всв2440100 0.0 10201853
21:00+20ю116326 0.0 102011
2 июля, сб
сб200:00+17юз22675 0.0 102121
03:00+17з22675 0.0 102035
06:00+18зсз247757 0.0 1021120
09:00+25ссз355244 0.0 1020572
12:00+29ссз35355 0.0 10191810
15:00+31с453122 0.0 10172800
18:00+29ссз45354 0.0 10171696
21:00+22зсз246396 0.0 101768
3 июля, вс
вс300:00+19сз397385 0.0 1017179
03:00+17ссз1180100 0.0 101712
06:00+19зсз1278100 0.0 101774
09:00+25ссз125496 0.0 1016511
12:00+29ссв234165 0.0 10151990
15:00+30св233693 0.0 10142370
18:00+25юз2458100 0.0 1014195
21:00+21зсз117047 0.1 101420